| time (UTC) | temp F | wind direction | speed MPH | gust MPH | rain 1hr in | rain 24hr in | rain mn in | humidity % | barometer mb |
| 20260504044005 | 48 | 179 | 0.0 | 0.0 | 0.00 | 0.01 | 0.00 | ||
| 20260504042506 | 50 | 179 | 0.0 | 0.0 | 0.00 | 0.01 | 0.00 | ||
| 20260504041007 | 50 | 179 | 0.0 | 0.0 | 0.00 | 0.01 | 0.00 | ||
| 20260504035508 | 50 | 179 | 0.0 | 0.0 | 0.00 | 0.01 | 0.00 | ||
| 20260504034010 | 51 | 179 | 0.0 | 0.0 | 0.00 | 0.01 | 0.00 | ||
| 20260504032511 | 50 | 329 | 0.0 | 0.0 | 0.00 | 0.01 | 0.00 | ||
| 20260504031012 | 50 | 329 | 0.0 | 0.0 | 0.00 | 0.01 | 0.00 | ||
| 20260504025513 | 51 | 329 | 0.0 | 0.0 | 0.00 | 0.01 | 0.00 | ||
| 20260504024014 | 53 | 329 | 0.0 | 0.0 | 0.00 | 0.01 | 0.00 | ||
| 20260504022515 | 54 | 329 | 0.0 | 0.0 | 0.00 | 0.01 | 0.00 | ||
| 20260504021016 | 54 | 293 | 3.0 | 0.0 | 0.00 | 0.01 | 0.00 | ||
| 20260504015517 | 54 | 357 | 1.0 | 6.0 | 0.00 | 0.01 | 0.00 | ||
| 20260504014018 | 57 | 259 | 9.0 | 8.0 | 0.00 | 0.01 | 0.00 | ||
| 20260504012518 | 62 | 284 | 5.0 | 5.0 | 0.00 | 0.01 | 0.00 | ||
| 20260504011019 | 63 | 316 | 5.0 | 6.0 | 0.00 | 0.01 | 0.00 | ||
| 20260504005520 | 63 | 335 | 7.0 | 6.0 | 0.00 | 0.01 | 0.00 | ||
| 20260504004020 | 67 | 339 | 7.0 | 7.0 | 0.00 | 0.01 | 0.00 | ||
| 20260504002521 | 64 | 314 | 5.0 | 8.0 | 0.00 | 0.01 | 0.00 | ||
| 20260504001022 | 66 | 11 | 5.0 | 4.0 | 0.00 | 0.01 | 0.00 | ||
| 20260503235523 | 65 | 315 | 4.0 | 8.0 | 0.00 | 0.01 | 0.00 | ||
| 20260503234023 | 66 | 305 | 8.0 | 6.0 | 0.00 | 0.01 | 0.00 | ||
| 20260503232524 | 70 | 329 | 6.0 | 9.0 | 0.00 | 0.01 | 0.00 | ||
| 20260503231025 | 71 | 359 | 7.0 | 5.0 | 0.00 | 0.01 | 0.00 | ||
| 20260503225525 | 71 | 322 | 7.0 | 10.0 | 0.00 | 0.01 | 0.00 | ||
| 20260503224026 | 72 | 347 | 7.0 | 8.0 | 0.00 | 0.01 | 0.00 | ||
| 20260503222527 | 71 | 342 | 5.0 | 12.0 | 0.00 | 0.01 | 0.00 | ||
| 20260503221027 | 71 | 51 | 9.0 | 5.0 | 0.00 | 0.01 | 0.00 | ||
| 20260503215528 | 70 | 4 | 6.0 | 6.0 | 0.00 | 0.01 | 0.00 | ||
| 20260503214029 | 70 | 332 | 8.0 | 6.0 | 0.00 | 0.01 | 0.00 | ||
| 20260503212529 | 71 | 308 | 7.0 | 6.0 | 0.00 | 0.01 | 0.00 | ||
| 20260503211030 | 71 | 359 | 8.0 | 7.0 | 0.00 | 0.01 | 0.00 | ||
| 20260503204032 | 69 | 359 | 7.0 | 7.0 | 0.00 | 0.01 | 0.00 | ||
| 20260503201033 | 69 | 350 | 3.0 | 6.0 | 0.00 | 0.01 | 0.00 | ||
| 20260503195534 | 67 | 291 | 6.0 | 9.0 | 0.00 | 0.01 | 0.00 | ||
| 20260503194035 | 67 | 21 | 4.0 | 3.0 | 0.00 | 0.01 | 0.00 | ||
| 20260503192536 | 66 | 335 | 3.0 | 3.0 | 0.00 | 0.01 | 0.00 | ||
| 20260503191037 | 65 | 323 | 4.0 | 4.0 | 0.00 | 0.01 | 0.00 | ||
| 20260503185537 | 64 | 3 | 3.0 | 2.0 | 0.00 | 0.01 | 0.00 | ||
| 20260503184039 | 63 | 347 | 5.0 | 2.0 | 0.00 | 0.01 | 0.00 | ||
| 20260503172545 | 60 | 352 | 4.0 | 6.0 | 0.00 | 0.01 | 0.00 | ||
| 20260503131108 | 42 | 8 | 0.0 | 0.0 | 0.00 | 0.01 | 0.00 | ||
| 20260503081143 | 36 | 8 | 0.0 | 0.0 | 0.00 | 0.01 | 0.00 | ||
| 20260503072648 | 36 | 8 | 0.0 | 0.0 | 0.00 | 0.01 | 0.00 | ||
| 20260503071150 | 36 | 8 | 0.0 | 0.0 | 0.00 | 0.01 | 0.00 | ||
| 20260503054200 | 40 | 8 | 0.0 | 0.0 | 0.00 | 0.00 | 0.01 | ||
| 20260503052702 | 40 | 8 | 0.0 | 0.0 | 0.00 | 0.00 | 0.01 | ||
| 20260503051204 | 39 | 8 | 0.0 | 0.0 | 0.00 | 0.00 | 0.01 | ||
| 20260503044208 | 38 | 8 | 0.0 | 0.0 | 0.00 | 0.00 | 0.01 |